When you browse on this site, cookies collect data to enhance your experience and personalize the content and advertising you see.
Visit our Privacy Policy to learn more. By continuing to use the site, you agree to this use of cookies and data.

Hourly Weather Igls

Today, 25 September, Friday

Time Temperature Precipitation Wind Pressure Humidity
00:00 +14°C° 1.3 mm 2 mps 676 mmHg 96%
01:00 +14°C° 1.3 mm 1 mps 675 mmHg 97%
02:00 +13°C° 4 mm 1 mps 675 mmHg 97%
03:00 +12°C° 4 mm 1 mps 674 mmHg 98%
04:00 +11°C° 4 mm 1 mps 674 mmHg 98%
05:00 +11°C° 4.2 mm 1 mps 673 mmHg 98%
06:00 +10°C° 4.2 mm 1 mps 673 mmHg 98%
07:00 +9°C° 4.2 mm 1 mps 673 mmHg 98%
08:00 +8°C° 2.2 mm 2 mps 673 mmHg 98%
09:00 +8°C° 2.2 mm 2 mps 673 mmHg 98%
10:00 +8°C° 2.2 mm 2 mps 673 mmHg 98%
11:00 +7°C° 3.8 mm 2 mps 672 mmHg 98%
12:00 +6°C° 3.8 mm 2 mps 672 mmHg 98%
13:00 +5°C° 3.8 mm 2 mps 671 mmHg 98%
14:00 +5°C° 2.1 mm 2 mps 671 mmHg 98%
15:00 +5°C° 2.1 mm 2 mps 671 mmHg 98%
16:00 +4°C° 2.1 mm 2 mps 671 mmHg 98%
17:00 +4°C° 2.1 mm 2 mps 671 mmHg 98%
18:00 +5°C° 2.1 mm 1 mps 671 mmHg 98%
19:00 +4°C° 2.1 mm 1 mps 671 mmHg 98%
20:00 +4°C° 0.7 mm 1 mps 671 mmHg 98%
21:00 +4°C° 0.7 mm 1 mps 670 mmHg 98%
22:00 +3°C° 0.7 mm 2 mps 670 mmHg 98%
23:00 +3°C° 1 mm 2 mps 670 mmHg 98%

Tomorrow, 26 September, Saturday

Time Temperature Precipitation Wind Pressure Humidity
00:00 +4°C° 1 mm 2 mps 670 mmHg 98%
01:00 +4°C° 1 mm 2 mps 670 mmHg 98%
02:00 +4°C° 1.8 mm 2 mps 670 mmHg 98%
03:00 +4°C° 1.8 mm 2 mps 670 mmHg 98%
04:00 +3°C° 1.8 mm 2 mps 670 mmHg 98%
05:00 +3°C° 1 mm 2 mps 670 mmHg 98%
06:00 +3°C° 1 mm 2 mps 670 mmHg 98%
07:00 +3°C° 1 mm 2 mps 671 mmHg 98%
08:00 +4°C° 0.5 mm 2 mps 671 mmHg 97%
09:00 +4°C° 0.5 mm 2 mps 671 mmHg 96%
10:00 +4°C° 0.5 mm 2 mps 672 mmHg 95%
11:00 +5°C° 0.2 mm 2 mps 672 mmHg 95%
12:00 +6°C° 0.2 mm 1 mps 671 mmHg 95%
13:00 +6°C° 0.2 mm 1 mps 671 mmHg 96%
14:00 +6°C° 0.2 mm 1 mps 672 mmHg 95%
15:00 +6°C° 0.2 mm 1 mps 672 mmHg 95%
16:00 +6°C° 0.2 mm 1 mps 672 mmHg 94%
17:00 +5°C° 0 mm 1 mps 672 mmHg 93%
18:00 +4°C° 0 mm 1 mps 672 mmHg 92%
19:00 +3°C° 0 mm 1 mps 672 mmHg 91%
20:00 +3°C° 0 mm 1 mps 672 mmHg 90%
21:00 +2°C° 0 mm 1 mps 673 mmHg 89%
22:00 +2°C° 0 mm 1 mps 673 mmHg 88%
23:00 +2°C° 0 mm 1 mps 673 mmHg 86%

Day after tomorrow, 27 September, Sunday

Time Temperature Precipitation Wind Pressure Humidity
00:00 +1°C° 0 mm 2 mps 673 mmHg 85%
01:00 +1°C° 0 mm 2 mps 673 mmHg 84%
02:00 +1°C° 0 mm 2 mps 673 mmHg 84%
03:00 +1°C° 0 mm 2 mps 673 mmHg 84%
04:00 +3°C° 0 mm 1 mps 673 mmHg 84%
05:00 +1°C° 0 mm 2 mps 673 mmHg 85%
06:00 +1°C° 0 mm 2 mps 672 mmHg 85%
07:00 +1°C° 0 mm 2 mps 672 mmHg 86%
08:00 +3°C° 0 mm 2 mps 673 mmHg 88%
09:00 +5°C° 0 mm 2 mps 673 mmHg 91%
10:00 +6°C° 0 mm 2 mps 673 mmHg 93%
11:00 +7°C° 0 mm 2 mps 673 mmHg 94%
12:00 +7°C° 0 mm 2 mps 674 mmHg 94%
13:00 +9°C° 0 mm 1 mps 674 mmHg 94%
14:00 +9°C° 0.2 mm 1 mps 674 mmHg 95%
15:00 +8°C° 0.2 mm 1 mps 675 mmHg 96%
16:00 +8°C° 0.2 mm 1 mps 675 mmHg 97%
17:00 +7°C° 0.1 mm 1 mps 675 mmHg 96%
18:00 +6°C° 0.1 mm 1 mps 676 mmHg 96%
19:00 +6°C° 0.1 mm 1 mps 676 mmHg 95%
20:00 +4°C° 0 mm 2 mps 676 mmHg 94%
21:00 +4°C° 0 mm 2 mps 677 mmHg 94%
22:00 +3°C° 0 mm 2 mps 677 mmHg 94%
23:00 +4°C° 0 mm 2 mps 677 mmHg 93%

28 September, Monday

Time Temperature Precipitation Wind Pressure Humidity
00:00 +4°C° 0 mm 2 mps 678 mmHg 93%
01:00 +4°C° 0 mm 2 mps 678 mmHg 93%
02:00 +4°C° 0 mm 2 mps 678 mmHg 93%
03:00 +4°C° 0 mm 2 mps 678 mmHg 92%
04:00 +5°C° 0 mm 1 mps 678 mmHg 92%
05:00 +5°C° 0.1 mm 1 mps 678 mmHg 92%
06:00 +5°C° 0.1 mm 1 mps 679 mmHg 91%
07:00 +6°C° 0.1 mm 1 mps 679 mmHg 91%
08:00 +7°C° 0.1 mm 1 mps 679 mmHg 93%
09:00 +8°C° 0.1 mm 1 mps 679 mmHg 96%
10:00 +8°C° 0.1 mm 1 mps 679 mmHg 98%
11:00 +9°C° 0.6 mm 1 mps 679 mmHg 98%
12:00 +9°C° 0.6 mm 1 mps 679 mmHg 98%
13:00 +9°C° 0.6 mm 1 mps 679 mmHg 98%
14:00 +9°C° 1.6 mm 1 mps 679 mmHg 98%
15:00 +8°C° 1.6 mm 2 mps 679 mmHg 99%
16:00 +8°C° 1.6 mm 2 mps 679 mmHg 99%
17:00 +8°C° 1.7 mm 2 mps 680 mmHg 99%
18:00 +8°C° 1.7 mm 2 mps 681 mmHg 99%
19:00 +8°C° 1.7 mm 2 mps 681 mmHg 99%
20:00 +8°C° 0.9 mm 2 mps 682 mmHg 99%
21:00 +9°C° 0.9 mm 1 mps 682 mmHg 99%
22:00 +9°C° 0.9 mm 1 mps 682 mmHg 99%
23:00 +10°C° 0.5 mm 1 mps 683 mmHg 99%

29 September, Tuesday

Time Temperature Precipitation Wind Pressure Humidity
00:00 +10°C° 0.5 mm 1 mps 683 mmHg 99%
01:00 +10°C° 0.5 mm 1 mps 683 mmHg 99%
02:00 +10°C° 0.2 mm 1 mps 683 mmHg 99%
03:00 +10°C° 0.2 mm 1 mps 684 mmHg 99%
04:00 +10°C° 0.2 mm 1 mps 684 mmHg 99%
05:00 +10°C° 0 mm 1 mps 684 mmHg 99%
06:00 +10°C° 0 mm 1 mps 685 mmHg 99%
07:00 +10°C° 0 mm 1 mps 685 mmHg 99%
08:00 +10°C° 0 mm 1 mps 685 mmHg 99%
09:00 +11°C° 0 mm 1 mps 685 mmHg 99%
10:00 +11°C° 0 mm 1 mps 685 mmHg 98%
11:00 +12°C° 0 mm 1 mps 685 mmHg 97%
12:00 +12°C° 0 mm 1 mps 685 mmHg 96%
13:00 +12°C° 0 mm 1 mps 685 mmHg 95%
14:00 +12°C° 0 mm 1 mps 685 mmHg 95%
15:00 +11°C° 0 mm 0 mps 685 mmHg 95%
16:00 +11°C° 0 mm 0 mps 685 mmHg 94%
17:00 +11°C° 0 mm 1 mps 685 mmHg 94%
18:00 +10°C° 0 mm 1 mps 685 mmHg 94%
19:00 +8°C° 0 mm 1 mps 685 mmHg 95%
20:00 +8°C° 0 mm 1 mps 685 mmHg 92%
21:00 +8°C° 0 mm 1 mps 685 mmHg 90%
22:00 +8°C° 0 mm 1 mps 685 mmHg 88%
23:00 +8°C° 0 mm 1 mps 685 mmHg 89%

30 September, Wednesday

Time Temperature Precipitation Wind Pressure Humidity
00:00 +8°C° 0 mm 1 mps 685 mmHg 89%
01:00 +8°C° 0 mm 1 mps 684 mmHg 90%
02:00 +8°C° 0.1 mm 1 mps 684 mmHg 91%
03:00 +9°C° 0.1 mm 1 mps 684 mmHg 91%
04:00 +9°C° 0.1 mm 1 mps 684 mmHg 92%
05:00 +9°C° 0 mm 1 mps 683 mmHg 92%
06:00 +9°C° 0 mm 1 mps 683 mmHg 93%
07:00 +9°C° 0 mm 1 mps 683 mmHg 93%
08:00 +11°C° 0 mm 1 mps 683 mmHg 93%
09:00 +12°C° 0 mm 1 mps 683 mmHg 92%
10:00 +14°C° 0 mm 1 mps 683 mmHg 91%
11:00 +14°C° 0 mm 1 mps 683 mmHg 89%
12:00 +15°C° 0 mm 1 mps 682 mmHg 88%
13:00 +15°C° 0 mm 1 mps 682 mmHg 86%
14:00 +15°C° 0.1 mm 1 mps 682 mmHg 88%
15:00 +15°C° 0.1 mm 1 mps 681 mmHg 90%
16:00 +14°C° 0.1 mm 1 mps 681 mmHg 92%
17:00 +13°C° 0.1 mm 1 mps 681 mmHg 93%
18:00 +11°C° 0.1 mm 1 mps 681 mmHg 94%
19:00 +10°C° 0.1 mm 1 mps 681 mmHg 95%
20:00 +10°C° 0.2 mm 1 mps 681 mmHg 95%
21:00 +10°C° 0.2 mm 1 mps 681 mmHg 95%
22:00 +10°C° 0.2 mm 1 mps 681 mmHg 96%
23:00 +10°C° 0.4 mm 1 mps 680 mmHg 95%
Show more